Tracking 21473 objects as of 27-Sep-2020
HD Live streaming from Space Station
objects crossing your sky now

STARLINK-1407

Track STARLINK-1407 now!
10-day predictions
STARLINK-1407 is classified as:


NORAD ID: 45703
Int'l Code: 2020-035AY
Perigee: 520.5 km
Apogee: 522.2 km
Inclination: 53.0 °
Period: 94.9 minutes
Semi major axis: 6892 km
RCS: Unknown
Launch date: June 4, 2020
Source: United States (US)
Launch site: AIR FORCE EASTERN TEST RANGE (AFETR)
aabbcc
Your satellite tracking list
Your tracking list is empty




NASA's NSSDC Master Catalog

Two Line Element Set (TLE):
1 45703U 20035AY  20271.58337963 -.00946334 +00000-0 -50867-1 0  9993
2 45703 052.9970 326.4679 0001274 077.2354 207.1149 15.17230469001757
Source of the keplerian elements: AFSPC